| time (UTC) | temp F | wind direction | speed MPH | gust MPH | rain 1hr in | rain 24hr in | rain mn in | humidity % | barometer mb |
| 20260503174010 | 59 | 325 | 0.0 | 2.0 | 0.03 | 0.25 | 0.23 | 96 | 1015.1 |
| 20260503173206 | 59 | 323 | 0.0 | 0.0 | 0.13 | 0.25 | 0.23 | 96 | 1015.1 |
| 20260503172705 | 59 | 323 | 0.0 | 0.0 | 0.03 | 0.24 | 0.22 | 96 | 1015.2 |
| 20260503172200 | 59 | 323 | 0.0 | 0.0 | 0.03 | 0.23 | 0.22 | 96 | 1015.1 |
| 20260503171647 | 59 | 322 | 0.0 | 0.0 | 0.05 | 0.23 | 0.22 | 95 | 1015.1 |
| 20260503170851 | 59 | 323 | 0.0 | 0.0 | 0.14 | 0.22 | 0.22 | 95 | 1015.3 |
| 20260503170330 | 59 | 322 | 0.0 | 0.0 | 0.00 | 0.22 | 0.20 | 95 | 1015.5 |
| 20260503150636 | 59 | 319 | 0.0 | 0.0 | 0.11 | 0.16 | 0.14 | 94 | 1016.5 |
| 20260503150139 | 59 | 319 | 0.0 | 2.0 | 0.24 | 0.15 | 0.14 | 94 | 1016.6 |
| 20260503131131 | 62 | 263 | 0.0 | 7.0 | 0.00 | 0.00 | 0.00 | 88 | 1017.3 |
| 20260503130633 | 62 | 283 | 0.0 | 0.0 | 0.00 | 0.00 | 0.00 | 88 | 1017.1 |
| 20260503130136 | 62 | 262 | 0.0 | 7.0 | 0.00 | 0.00 | 0.00 | 88 | 1017.1 |
| 20260503120150 | 60 | 288 | 0.0 | 0.0 | 0.00 | 0.00 | 0.00 | 81 | 1017.3 |
| 20260503110445 | 61 | 288 | 0.0 | 0.0 | 0.00 | 0.00 | 0.00 | 79 | 1017.0 |
| 20260503100137 | 62 | 288 | 0.0 | 0.0 | 0.00 | 0.00 | 0.00 | 75 | 1016.8 |
| 20260503090211 | 65 | 288 | 0.0 | 0.0 | 0.00 | 0.00 | 0.00 | 68 | 1016.9 |
| 20260503081526 | 67 | 288 | 0.0 | 0.0 | 0.00 | 0.00 | 0.00 | 64 | 1016.7 |
| 20260503081011 | 67 | 288 | 0.0 | 0.0 | 0.00 | 0.00 | 0.00 | 63 | 1016.7 |
| 20260503080502 | 68 | 288 | 0.0 | 0.0 | 0.00 | 0.00 | 0.00 | 63 | 1016.7 |
| 20260503072642 | 69 | 310 | 2.0 | 8.0 | 0.00 | 0.00 | 0.00 | 61 | 1016.5 |
| 20260503072123 | 69 | 306 | 2.0 | 8.0 | 0.00 | 0.00 | 0.00 | 61 | 1016.5 |
| 20260503071304 | 69 | 312 | 2.0 | 7.0 | 0.00 | 0.00 | 0.00 | 60 | 1016.5 |
| 20260503070801 | 70 | 296 | 0.0 | 7.0 | 0.00 | 0.00 | 0.00 | 61 | 1016.4 |
| 20260503070258 | 70 | 327 | 0.0 | 7.0 | 0.00 | 0.00 | 0.00 | 60 | 1016.5 |
| 20260503060231 | 71 | 325 | 1.0 | 8.0 | 0.00 | 0.00 | 0.00 | 59 | 1016.4 |
| 20260503054920 | 71 | 326 | 1.0 | 7.0 | 0.00 | 0.00 | 0.00 | 59 | 1016.6 |
| 20260503054420 | 71 | 321 | 0.0 | 7.0 | 0.00 | 0.00 | 0.00 | 60 | 1016.6 |
| 20260503053622 | 71 | 325 | 0.0 | 5.0 | 0.00 | 0.00 | 0.00 | 59 | 1016.7 |
| 20260503053111 | 71 | 321 | 0.0 | 5.0 | 0.00 | 0.00 | 0.00 | 59 | 1016.7 |
| 20260503052552 | 71 | 333 | 0.0 | 8.0 | 0.00 | 0.00 | 0.00 | 59 | 1016.7 |
| 20260503052102 | 72 | 348 | 2.0 | 8.0 | 0.00 | 0.00 | 0.00 | 58 | 1016.7 |
| 20260503051243 | 73 | 15 | 2.0 | 8.0 | 0.00 | 0.00 | 0.00 | 55 | 1016.7 |
| 20260503050745 | 73 | 343 | 3.0 | 10.0 | 0.00 | 0.00 | 0.00 | 55 | 1016.7 |
| 20260503045925 | 73 | 343 | 3.0 | 10.0 | 0.00 | 0.00 | 0.00 | 55 | 1016.8 |
| 20260503045432 | 73 | 327 | 3.0 | 10.0 | 0.00 | 0.00 | 0.00 | 56 | 1016.8 |
| 20260503044912 | 74 | 5 | 1.0 | 10.0 | 0.00 | 0.00 | 0.00 | 55 | 1016.8 |
| 20260503044053 | 73 | 348 | 0.0 | 4.0 | 0.00 | 0.00 | 0.00 | 56 | 1016.9 |
| 20260503043601 | 73 | 355 | 0.0 | 4.0 | 0.00 | 0.00 | 0.00 | 58 | 1017.0 |
| 20260503042752 | 72 | 315 | 0.0 | 3.0 | 0.00 | 0.00 | 0.00 | 60 | 1017.1 |
| 20260503042233 | 71 | 315 | 0.0 | 3.0 | 0.00 | 0.00 | 0.00 | 59 | 1017.1 |
| 20260503041742 | 71 | 325 | 0.0 | 7.0 | 0.00 | 0.00 | 0.00 | 59 | 1017.2 |
| 20260503041226 | 71 | 325 | 1.0 | 8.0 | 0.00 | 0.00 | 0.00 | 59 | 1017.2 |
| 20260503040717 | 71 | 252 | 1.0 | 8.0 | 0.00 | 0.00 | 0.00 | 58 | 1017.2 |
| 20260503040222 | 71 | 5 | 2.0 | 9.0 | 0.00 | 0.00 | 0.00 | 58 | 1017.3 |
| 20260503035723 | 71 | 331 | 2.0 | 9.0 | 0.00 | 0.00 | 0.00 | 58 | 1017.3 |
| 20260503035219 | 72 | 355 | 2.0 | 9.0 | 0.00 | 0.00 | 0.00 | 58 | 1017.4 |
| 20260503034724 | 72 | 332 | 2.0 | 9.0 | 0.00 | 0.00 | 0.00 | 57 | 1017.3 |
| 20260503034225 | 73 | 331 | 1.0 | 9.0 | 0.00 | 0.00 | 0.00 | 57 | 1017.5 |
| 20260503033725 | 72 | 0 | 1.0 | 9.0 | 0.00 | 0.00 | 0.00 | 58 | 1017.5 |
| 20260503032906 | 71 | 325 | 2.0 | 12.0 | 0.00 | 0.00 | 0.00 | 58 | 1017.7 |
| 20260503032404 | 71 | 326 | 3.0 | 12.0 | 0.00 | 0.00 | 0.00 | 58 | 1017.8 |
| 20260503031910 | 72 | 350 | 4.0 | 12.0 | 0.00 | 0.00 | 0.00 | 57 | 1017.8 |
| 20260503031353 | 72 | 323 | 3.0 | 10.0 | 0.00 | 0.00 | 0.00 | 56 | 1017.9 |
| 20260503030843 | 73 | 355 | 3.0 | 9.0 | 0.00 | 0.00 | 0.00 | 57 | 1018.1 |
| 20260503030024 | 72 | 315 | 2.0 | 10.0 | 0.00 | 0.00 | 0.00 | 58 | 1018.2 |
| 20260503025528 | 72 | 327 | 2.0 | 10.0 | 0.00 | 0.00 | 0.00 | 58 | 1018.3 |
| 20260503025013 | 71 | 336 | 2.0 | 10.0 | 0.00 | 0.00 | 0.00 | 59 | 1018.4 |
| 20260503024502 | 70 | 323 | 2.0 | 8.0 | 0.00 | 0.00 | 0.00 | 60 | 1018.6 |
| 20260503023651 | 70 | 327 | 1.0 | 10.0 | 0.00 | 0.00 | 0.00 | 60 | 1018.7 |
| 20260503023155 | 70 | 344 | 1.0 | 10.0 | 0.00 | 0.00 | 0.00 | 61 | 1018.7 |
| 20260503022644 | 70 | 338 | 2.0 | 10.0 | 0.00 | 0.00 | 0.00 | 61 | 1018.7 |
| 20260503004004 | 67 | 324 | 1.0 | 6.0 | 0.00 | 0.00 | 0.00 | 66 | 1020.4 |
| 20260503003444 | 67 | 341 | 2.0 | 6.0 | 0.00 | 0.00 | 0.00 | 66 | 1020.4 |
| 20260503002941 | 67 | 5 | 1.0 | 6.0 | 0.00 | 0.00 | 0.00 | 67 | 1020.5 |
| 20260503002431 | 67 | 350 | 0.0 | 4.0 | 0.00 | 0.00 | 0.00 | 67 | 1020.5 |
| 20260503001626 | 66 | 344 | 0.0 | 3.0 | 0.00 | 0.00 | 0.00 | 69 | 1020.6 |
| 20260503001130 | 66 | 329 | 0.0 | 0.0 | 0.00 | 0.00 | 0.00 | 70 | 1020.7 |
| 20260503000625 | 65 | 328 | 0.0 | 1.0 | 0.00 | 0.00 | 0.00 | 71 | 1020.7 |
| 20260503000108 | 65 | 233 | 0.0 | 0.0 | 0.00 | 0.00 | 0.00 | 74 | 1020.8 |
| 20260502235611 | 64 | 233 | 0.0 | 0.0 | 0.00 | 0.00 | 0.00 | 76 | 1020.8 |
| 20260502235117 | 63 | 233 | 0.0 | 0.0 | 0.00 | 0.00 | 0.00 | 79 | 1020.8 |
| 20260502234603 | 62 | 233 | 0.0 | 0.0 | 0.00 | 0.00 | 0.00 | 83 | 1020.9 |
| 20260502234103 | 61 | 233 | 0.0 | 0.0 | 0.00 | 0.00 | 0.00 | 84 | 1020.9 |
| 20260502233611 | 61 | 233 | 0.0 | 0.0 | 0.00 | 0.00 | 0.00 | 86 | 1020.9 |
| 20260502233104 | 60 | 233 | 0.0 | 0.0 | 0.00 | 0.00 | 0.00 | 88 | 1020.9 |
| 20260502232558 | 59 | 233 | 0.0 | 0.0 | 0.00 | 0.00 | 0.00 | 91 | 1021.0 |
| 20260502232052 | 58 | 233 | 0.0 | 0.0 | 0.00 | 0.00 | 0.00 | 93 | 1021.0 |
| 20260502231554 | 58 | 233 | 0.0 | 0.0 | 0.00 | 0.00 | 0.00 | 95 | 1021.1 |
| 20260502231057 | 57 | 233 | 0.0 | 0.0 | 0.00 | 0.00 | 0.00 | 96 | 1021.0 |
| 20260502230552 | 56 | 233 | 0.0 | 0.0 | 0.00 | 0.00 | 0.00 | 96 | 1021.1 |
| 20260502230057 | 56 | 233 | 0.0 | 0.0 | 0.00 | 0.00 | 0.00 | 96 | 1021.1 |
| 20260502225251 | 55 | 233 | 0.0 | 0.0 | 0.00 | 0.00 | 0.00 | 96 | 1021.1 |
| 20260502224740 | 54 | 233 | 0.0 | 0.0 | 0.00 | 0.00 | 0.00 | 96 | 1021.1 |
| 20260502224237 | 54 | 233 | 0.0 | 0.0 | 0.00 | 0.00 | 0.00 | 96 | 1021.1 |
| 20260502223744 | 53 | 233 | 0.0 | 0.0 | 0.00 | 0.00 | 0.00 | 96 | 1021.0 |
| 20260502223246 | 53 | 233 | 0.0 | 0.0 | 0.00 | 0.00 | 0.00 | 96 | 1021.1 |
| 20260502222735 | 53 | 233 | 0.0 | 0.0 | 0.00 | 0.00 | 0.00 | 96 | 1021.1 |
| 20260502222222 | 52 | 233 | 0.0 | 0.0 | 0.00 | 0.00 | 0.00 | 96 | 1021.0 |
| 20260502221727 | 52 | 233 | 0.0 | 0.0 | 0.00 | 0.00 | 0.00 | 96 | 1021.0 |
| 20260502221212 | 52 | 233 | 0.0 | 0.0 | 0.00 | 0.00 | 0.00 | 96 | 1021.0 |
| 20260502220053 | 51 | 233 | 0.0 | 0.0 | 0.00 | 0.00 | 0.00 | 96 | 1020.9 |
| 20260502215555 | 51 | 233 | 0.0 | 0.0 | 0.00 | 0.00 | 0.00 | 96 | 1021.0 |
| 20260502214742 | 50 | 233 | 0.0 | 0.0 | 0.00 | 0.00 | 0.00 | 96 | 1020.9 |
| 20260502214232 | 50 | 233 | 0.0 | 0.0 | 0.00 | 0.00 | 0.00 | 96 | 1021.0 |
| 20260502213724 | 49 | 233 | 0.0 | 0.0 | 0.00 | 0.00 | 0.00 | 96 | 1020.9 |
| 20260502213225 | 49 | 233 | 0.0 | 0.0 | 0.00 | 0.00 | 0.00 | 96 | 1020.9 |
| 20260502212724 | 49 | 233 | 0.0 | 0.0 | 0.00 | 0.00 | 0.00 | 96 | 1020.9 |
| 20260502212218 | 49 | 233 | 0.0 | 0.0 | 0.00 | 0.00 | 0.00 | 96 | 1020.8 |
| 20260502211116 | 49 | 233 | 0.0 | 0.0 | 0.00 | 0.00 | 0.00 | 96 | 1020.6 |
| 20260502210600 | 49 | 233 | 0.0 | 0.0 | 0.00 | 0.00 | 0.00 | 96 | 1020.4 |
| 20260502205808 | 49 | 233 | 0.0 | 0.0 | 0.00 | 0.00 | 0.00 | 95 | 1020.4 |
| 20260502205256 | 49 | 233 | 0.0 | 0.0 | 0.00 | 0.00 | 0.00 | 95 | 1020.4 |
| 20260502204800 | 49 | 233 | 0.0 | 0.0 | 0.00 | 0.00 | 0.00 | 95 | 1020.4 |
| 20260502204308 | 49 | 233 | 0.0 | 0.0 | 0.00 | 0.00 | 0.00 | 96 | 1020.4 |
| 20260502203500 | 49 | 233 | 0.0 | 0.0 | 0.00 | 0.00 | 0.00 | 96 | 1020.4 |
| 20260502203006 | 49 | 233 | 0.0 | 0.0 | 0.00 | 0.00 | 0.00 | 96 | 1020.4 |
| 20260502202511 | 49 | 233 | 0.0 | 0.0 | 0.00 | 0.00 | 0.00 | 95 | 1020.3 |
| 20260502201951 | 49 | 233 | 0.0 | 0.0 | 0.00 | 0.00 | 0.00 | 95 | 1020.3 |
| 20260502201459 | 49 | 233 | 0.0 | 0.0 | 0.00 | 0.00 | 0.00 | 95 | 1020.2 |
| 20260502200942 | 49 | 233 | 0.0 | 0.0 | 0.00 | 0.00 | 0.00 | 95 | 1020.2 |
| 20260502200426 | 49 | 233 | 0.0 | 0.0 | 0.00 | 0.00 | 0.00 | 95 | 1020.2 |
| 20260502195926 | 49 | 233 | 0.0 | 0.0 | 0.00 | 0.00 | 0.00 | 95 | 1020.2 |
| 20260502195415 | 49 | 233 | 0.0 | 0.0 | 0.00 | 0.00 | 0.00 | 96 | 1020.2 |
| 20260502194921 | 49 | 233 | 0.0 | 0.0 | 0.00 | 0.00 | 0.00 | 95 | 1020.0 |
| 20260502194428 | 48 | 233 | 0.0 | 0.0 | 0.00 | 0.00 | 0.00 | 95 | 1020.0 |
| 20260502193324 | 49 | 233 | 0.0 | 0.0 | 0.00 | 0.00 | 0.00 | 95 | 1020.0 |
| 20260502192521 | 49 | 92 | 0.0 | 0.0 | 0.00 | 0.00 | 0.00 | 95 | 1019.9 |
| 20260502192007 | 49 | 92 | 0.0 | 0.0 | 0.00 | 0.00 | 0.00 | 94 | 1020.0 |
| 20260502191453 | 49 | 92 | 0.0 | 0.0 | 0.00 | 0.00 | 0.00 | 94 | 1019.9 |
| 20260502191000 | 50 | 92 | 0.0 | 0.0 | 0.00 | 0.00 | 0.00 | 95 | 1020.0 |
| 20260502190500 | 50 | 92 | 0.0 | 0.0 | 0.00 | 0.00 | 0.00 | 95 | 1019.9 |
| 20260502185958 | 50 | 92 | 0.0 | 0.0 | 0.00 | 0.00 | 0.00 | 95 | 1019.8 |
| 20260502185205 | 50 | 92 | 0.0 | 0.0 | 0.00 | 0.00 | 0.00 | 95 | 1019.7 |
| 20260502184702 | 50 | 92 | 0.0 | 0.0 | 0.00 | 0.00 | 0.00 | 95 | 1019.8 |
| 20260502184143 | 49 | 92 | 0.0 | 0.0 | 0.00 | 0.00 | 0.00 | 95 | 1019.8 |
| 20260502182215 | 50 | 92 | 0.0 | 0.0 | 0.00 | 0.00 | 0.00 | 94 | 1019.9 |
| 20260502181720 | 50 | 92 | 0.0 | 0.0 | 0.00 | 0.00 | 0.00 | 94 | 1019.8 |
| 20260502181210 | 50 | 92 | 0.0 | 0.0 | 0.00 | 0.00 | 0.00 | 94 | 1019.7 |
| 20260502180717 | 50 | 92 | 0.0 | 0.0 | 0.00 | 0.00 | 0.00 | 94 | 1019.9 |
| 20260502180225 | 50 | 92 | 0.0 | 0.0 | 0.00 | 0.00 | 0.00 | 94 | 1019.9 |